Location: Bukovany
(49.8234°N, 14.6297°E)
Time: 06:48:31
(UTC+00:00)

SL-16 R/B - Pass Details

Date: 17 November 2025
Orbit: 985 x 1006 km, 99.8° (Epoch: 10 December)

Event Time Altitude Azimuth Distance (km) Brightness Sun altitude
Rises 16:12:41 0° 15° (NNE) 3,748 5.2 -9.3°
Reaches altitude 10° 16:15:11 10° 13° (NNE) 2,794 4.6 -9.6°
Maximum altitude 16:21:26 70° 291° (WNW) 1,065 2.9 -10.6°
Drops below altitude 10° 16:27:37 10° 209° (SSW) 2,768 5.6 -11.6°
Sets 16:30:05 0° 207° (SSW) 3,711 6.2 -11.9°
